{"data":{"norad_id":48569,"epoch":"2026-05-25T02:30:44.853984Z","epoch_age_seconds":56113,"freshness":"FRESH","line1":"1 48569U 21041S   26145.10468581  .00001934  00000+0  74062-4 0  9990","line2":"2 48569  53.1577 131.3076 0001207  82.6725 277.4414 15.31698717276982","mean_motion":15.31698717,"eccentricity":0.0001207,"inclination_deg":53.1577,"raan_deg":131.3076,"arg_perigee_deg":82.6725,"mean_anomaly_deg":277.4414,"bstar":7.4062e-5,"rev_number":27698,"period_min":94.013266709552,"perigee_km":469.91715986961,"apogee_km":471.5704796995,"semimajor_km":6848.8808197846,"source":"CELESTRAK","updated_at":"2026-05-25T13:38:16.726516Z"}}